Regional Weather Roundup
Issued by NWS

Home | Current Version | Previous Version | Graphics & Text | Print | Product List | Glossary Off
Versions: 1 2 3 4 5 6 7 8 9 10 11 12 13 14 15 16 17 18 19 20 21 22 23 24 25 26 27 28 29 30 31 32 33 34 35 36 37 38 39 40 41 42 43 44 45 46 47 48 49 50

000
ASUS43 KDTX 180501
RWRMI
MICHIGAN HOURLY REGIONAL WEATHER ROUNDUP
NATIONAL WEATHER SERVICE DETROIT/PONTIAC MI
1200 AM EST THU DEC 18 2014

NOTE: "FAIR" INDICATES FEW OR NO CLOUDS BELOW 12,000 FEET WITH NO
SIGNIFICANT WEATHER AND/OR OBSTRUCTION TO VISIBILITY.

MIZ047>049-052>055-059>063-066>070-074>076-081>083-180600-
SOUTHEAST LOWER MICHIGAN

CITY           SKY/WX    TMP DP  RH WIND       PRES   REMARKS
ADRIAN         CLOUDY    28  19  69 W9G21     30.21R WCI  19
ALMA           CLOUDY    28  26  90 W10       30.15R WCI  19
ANN ARBOR      CLOUDY    28  19  69 W14       30.17R WCI  17
BAD AXE        CLOUDY    29  26  89 W8        30.08R WCI  21
CARO           CLOUDY    29  26  89 W13       30.10S WCI  18
DETROIT CITY   CLOUDY    30  18  60 W13G20    30.15R WCI  20
DETROIT        CLOUDY    29  19  66 W13G21    30.17R WCI  19
FLINT          CLOUDY    30  21  69 W15       30.13R WCI  19
GROSSE ILE     MOCLDY    28  19  69 W8        30.16R WCI  20
HILLSDALE      CLOUDY    28  22  78 NW10G16   30.19R WCI  18
HOWELL         CLOUDY    27  22  79 W14       30.14R WCI  16

CITY           SKY/WX    TMP DP  RH WIND       PRES   REMARKS
JACKSON        CLOUDY    27  19  72 W9        30.19R WCI  18
LAMBERTVILLE   CLOUDY    32  21  64 W7        30.21R WCI  26
LANSING        CLOUDY    28  21  75 W13       30.17R WCI  17
LAPEER         CLOUDY    28  23  81 W9G16     30.11R WCI  19
MASON          CLOUDY    27  20  75 W6        30.17R WCI  21
MONROE         CLOUDY    28  19  69 W12       30.18R WCI  18
MT. CLEMENS    CLOUDY    29  20  70 W10       30.11R WCI  20
PONTIAC        CLOUDY    27  19  72 W17       30.12R WCI  14
PORT HOPE        N/A     30  23  75 NW13G20   30.06R WCI  20
PORT HURON     CLOUDY    28  21  74 W6        30.11S WCI  22
TRI CITIES     CLOUDY    30  26  85 W12       30.13R WCI  20
TROY           CLOUDY    31  20  65 W10G20    30.15R WCI  22
SAGINAW HB     CLOUDY    30  28  93 W13       30.12R WCI  20
$$
MIZ043>046-050>051-056>058-064>065-071>073-077>080-180600-
SOUTHWEST LOWER MICHIGAN

CITY           SKY/WX    TMP DP  RH WIND       PRES   REMARKS
BATTLE CREEK   CLOUDY    29  20  69 W10       30.21R WCI  20
BENTON HARBOR  CLOUDY    28  21  75 W10       30.25R WCI  19
BIG RAPIDS     CLOUDY    29  28  97 NW6       30.13R WCI  23
COLDWATER      CLOUDY    28  21  75 W8        30.21R WCI  20
FREMONT        CLOUDY    29  23  79 W8        30.18R WCI  21
HOLLAND        CLOUDY    32  22  66 W10       30.23R WCI  24
GRAND RAPIDS   CLOUDY    29  21  72 W13       30.20R WCI  19
IONIA          CLOUDY    29  23  77 W9        30.17R WCI  21
KALAMAZOO      CLOUDY    29  20  69 W7        30.22R WCI  22
LUDINGTON      LGT SNOW  31  27  86 NW6       30.18R WCI  25
MARSHALL       CLOUDY    27  19  73 W8        30.20R WCI  19
MOUNT PLEASANT CLOUDY    29  27  90 W3        30.12R
MUSKEGON       CLOUDY    32  23  69 NW8       30.21R WCI  25
SOUTH HAVEN    CLOUDY    31  22  68 W8        30.23F WCI  23
$$
MIZ016>042-180600-
NORTHERN LOWER MICHIGAN

CITY           SKY/WX    TMP DP  RH WIND       PRES   REMARKS
ALPENA         CLOUDY    25  21  85 N9        30.10R WCI  15
BEAVER ISLAND  CLOUDY    26  24  89 N5        30.15S WCI  21
BELLAIRE       CLOUDY    28  25  88 NW3       30.14R
CADILLAC       CLOUDY    28  25  89 NW10      30.09R WCI  18
CHARLEVOIX     CLOUDY    28  25  89 N10G16    30.16R WCI  18
FRANKFORT      LGT SNOW  31  29  94 N5        30.16R WCI  26
GAYLORD        CLOUDY    23  22  96 NW3       30.08R
GRAYLING       CLOUDY    28  26  93 NW8       30.09R WCI  20
HARBOR SPRINGS CLOUDY    25  21  85 N3        30.13R
HOUGHTON LAKE  CLOUDY    26  24  92 NW5       30.09R WCI  20
MANISTEE       CLOUDY    30  27  86 N5        30.17R WCI  25
OSCODA         CLOUDY    27  23  85 NW14      30.09R WCI  15
PELLSTON       CLOUDY    25  20  81 N9        30.14R WCI  15
ROGERS CITY    CLOUDY    26  23  91 N7        30.12R WCI  18
TRAVERSE CITY  CLOUDY    31  26  82 N12       30.13R WCI  22
$$
MIZ007>008-015-180600-
EASTERN UPPER MICHIGAN

CITY           SKY/WX    TMP DP  RH WIND       PRES   REMARKS
KINROSS        CLOUDY    21  19  93 N10       30.13S WCI  10
MACKINAC ISLAN CLOUDY    24  22  94 N10       30.13R WCI  13
NEWBERRY       CLOUDY    22  20  95 N8        30.16R WCI  12
S. S. MARIE    CLOUDY    20  13  74 NW8       30.12R WCI  10
$$
MIZ004>006-011>014-085-180600-
CENTRAL UPPER MICHIGAN

CITY           SKY/WX    TMP DP  RH WIND       PRES   REMARKS
MANISTIQUE     CLOUDY    26  23  89 N14       30.17R WCI  14
ESCANABA       CLOUDY    27  21  80 N10G17    30.20R WCI  17
MENOMINEE      CLOUDY    27  21  80 N7        30.20S WCI  19
SAWYER-GWINN   CLOUDY    25  21  87 N14       30.19R WCI  13
$$
MIZ001>003-009>011-084-180600-
WESTERN UPPER MICHIGAN

CITY           SKY/WX    TMP DP  RH WIND       PRES   REMARKS
IRON MOUNTAIN  CLOUDY    25  20  81 N18       30.20R WCI  11
HOUGHTON       PTCLDY    18  14  84 N5        30.25S WCI  11
COPPER HARBOR    N/A     27  18  69 E12G18    30.29R WCI  17
IRONWOOD       CLOUDY    21  19  93 NE3       30.24R
$$

ABBREVIATIONS USED IN REMARKS
   TC - TEMPERATURE IN CELSIUS
  WCI - WIND CHILL INDEX
   HX - HEAT INDEX
  VSB - VISIBILITY




USA.gov is the U.S. government's official web portal to all federal, state and local government web resources and services.